This demonstration page uses our WeatherBlox Daily Observations layout. Learn more.

Left ArrowRight Arrow

41.55636, -103.73856

Hourly Observations for December 18, 2017

Temp ( °F °C ) Dew Point ( °F °C ) Humidity (%) Winds ( mph kmh ) Pressure ( in mb ) Visibility ( mi km ) Precip ( " mm )
12:53 am 00:53 Clear 20 -6.7 12 -11.1 71 71 N N/A 30.01 1016 10 16 N/A
1:53 am 01:53 Clear 22 -5.6 13 -10.6 68 68 N N/A 29.98 1015 10 16 N/A
2:53 am 02:53 Clear 19 -7.2 12 -11.1 74 74 N N/A 29.97 1015 10 16 N/A
3:53 am 03:53 Clear 18 -7.8 11 -11.7 74 74 ENE 5 7 29.98 1015 10 16 N/A
4:53 am 04:53 Clear 21 -6.1 13 -10.6 71 71 ESE 3 6 29.96 1015 10 16 N/A
5:53 am 05:53 Clear 22 -5.6 14 -10 71 71 ESE 3 6 29.97 1015 10 16 N/A
6:53 am 06:53 Clear 26 -3.3 15 -9.4 63 63 S 5 7 29.98 1015 10 16 N/A
7:53 am 07:53 Sunny 37 2.8 23 -5 57 57 WSW 7 11 29.96 1014 10 16 N/A
8:53 am 08:53 Sunny 47 8.3 25 -3.9 42 42 W 14 22 29.94 1014 10 16 N/A
9:53 am 09:53 Sunny 49 9.4 25 -3.9 39 39 W 14 22 29.94 1014 10 16 N/A
10:53 am 10:53 Sunny 53 11.7 26 -3.3 35 35 W 29 46 29.91 1013 10 16 N/A
11:53 am 11:53 Sunny 53 11.7 25 -3.9 34 34 W 29 46 29.91 1013 10 16 N/A
12:53 pm 12:53 Sunny 53 11.7 24 -4.4 32 32 W 28 44 29.90 1012 10 16 N/A
1:53 pm 13:53 Sunny 55 12.8 24 -4.4 30 30 W 24 39 29.88 1012 10 16 N/A
2:53 pm 14:53 Sunny 53 11.7 23 -5 31 31 WNW 15 24 29.91 1013 10 16 N/A
3:53 pm 15:53 Sunny 52 11.1 24 -4.4 34 34 W 18 30 29.93 1014 10 16 N/A
4:53 pm 16:53 Clear 49 9.4 24 -4.4 38 38 WNW 14 22 29.94 1014 10 16 N/A
5:53 pm 17:53 Clear 47 8.3 24 -4.4 41 41 WNW 15 24 29.95 1014 10 16 N/A
6:53 pm 18:53 Clear 47 8.3 23 -5 39 39 WNW 18 30 29.94 1014 10 16 N/A
7:53 pm 19:53 Clear 44 6.7 23 -5 43 43 WNW 10 17 29.92 1013 10 16 N/A
8:53 pm 20:53 Clear 46 7.8 23 -5 40 40 WNW 16 26 29.90 1013 10 16 N/A
9:53 pm 21:53 Clear 44 6.7 24 -4.4 45 45 W 12 19 29.92 1013 10 16 N/A
10:53 pm 22:53 Clear 42 5.6 24 -4.4 49 49 WNW 12 19 29.93 1014 10 16 N/A
11:53 pm 23:53 Clear 39 3.9 25 -3.9 57 57 NW 8 13 29.95 1014 10 16 N/A

Powered by AerisWeather